THORAD DELTA 1 DEB, 42612

Orbit data source: Space-Track

THORAD DELTA 1 DEB, 42612 is space debris in SSO originally from a launch on Fri, 15 Nov 1974 UTC launched from the Air Force Western Test Range (AFWTR). Debris objects in space refer to the collection of defunct objects orbiting the Earth. Examples of debris include non-operational satellites, rocket bodies, and fragments generated from explosions, collisions, or faulty payload assembly.

Loading next visibility...
Identifier
42612, 1974-089GD
Orbit
SSO
Country
Flag of USUS
Related business
Manufacturer
Unknown
Mission
Spacecraft
Bus & Motor
Unknown
Mass
Unknown
Launch date (UTC)
1974-11-15 (51 years ago)
Launch vehicle
Unknown
Launch site
Air Force Western Test Range (AFWTR)
Object type
Payload
Rocket body
Debris
Shape & HBR
Unknown shape, 0.1 m
Radar Cross Section
Small (<0.1 m²)

Expand to show TLE details & history
Last TLE update: 5 days ago

TLE from 5 days ago
0 THORAD DELTA 1 DEB
1 42612U 74089GD  26066.20502397  .00000034  00000-0  39974-3 0  9993
2 42612 101.6150  64.9695 0084092 252.4317 106.7564 12.69881827549714
Epoch: 2026-03-07T04:55Z
TLE epoch observation values (Epoch: 2026-03-07T04:55:14.071Z)
Latitude
-0.00006°
Longitude
-173.76914°
Altitude
1,404.346 km
Speed
7.149 km/s
True Right ascension
04h 19m 52s
True Declination
0° 00' 00"
Sunlit
Object was in daylight at epoch
Visualization orbit readout
Latitude
Unknown
Longitude
Unknown
Altitude
Unknown
Speed
Unknown
Apparent Right ascension
Unknown
Apparent Declination
Unknown
Sunlit
N/A
Visualization observer readout
Local Sidereal Time
20:36:54
Azimuth
Unknown
Elevation
Unknown
Doppler factor
Unknown
Orbital elements
Apogee altitude
1,445.173 km
Perigee altitude
1,314.695 km
Semi-major axis
7,758.071 km
Eccentricity
0.00841
Inclination
101.615°
RAAN
64.9695°
Arg. of periapsis
252.4317°
True anomaly
107.67628°
Mean anomaly
106.7564°
Eccentric anomaly
107.21662°
Mean motion
3.17623 °/min
Orbital period
113.34 mins
BSTAR
0.00039974
Loading maneuver chart data...
Computing Atmospheric mass density...

Documentation

Showing up to 5 results
|